Location: The Stocker AstroScience Center
(25.7579°N, 80.3725°W)
Time: 22:15:15
(UTC-04:00)

ISS - All Passes

Search period start: 23 March 2017 00:00
Search period end: 02 April 2017 00:00
Orbit: 399 x 409 km, 51.6° (Epoch: 24 March)

Date Brightness Start Highest point End Pass type
(mag) Time Alt. Az. Time Alt. Az. Time Alt. Az.
23 Mar - 05:41:29 10° N 05:43:17 14° NE 05:45:05 10° ENE visible
23 Mar - 07:16:48 10° WNW 07:19:48 33° SW 07:22:48 10° SSE daylight
23 Mar - 20:38:55 10° SSE 20:41:01 16° SE 20:43:06 10° E visible
23 Mar - 22:14:35 10° W 22:17:17 24° NW 22:20:00 10° NNE night (unlit)
24 Mar - 06:24:15 10° NW 06:27:32 88° WSW 06:30:50 10° SE visible
24 Mar - 21:21:42 10° SW 21:24:53 55° NW 21:28:05 10° NNE visible
25 Mar - 05:32:06 10° NNW 05:35:11 36° NE 05:38:15 10° ESE visible
25 Mar - 07:10:32 10° WSW 07:11:20 11° SW 07:12:08 10° SW daylight
25 Mar - 20:29:24 10° SSW 20:32:34 53° SE 20:35:45 10° NE visible
26 Mar - 04:40:26 10° N 04:42:43 17° NE 04:44:59 10° E visible
26 Mar - 06:16:23 10° WNW 06:19:08 24° SW 06:21:53 10° S visible
26 Mar - 19:37:46 10° S 19:40:18 21° SE 19:42:51 10° ENE daylight
26 Mar - 21:14:17 10° W 21:16:40 19° NW 21:19:04 10° N visible
27 Mar - 05:23:35 10° NW 05:26:51 63° SW 05:30:06 10° SSE visible
27 Mar - 20:21:08 10° WSW 20:24:12 40° NW 20:27:18 10° NNE visible
28 Mar - 04:31:17 10° NNW 04:34:28 48° NE 04:37:40 10° ESE night (unlit)
28 Mar - 19:28:36 10° SW 19:31:49 76° SE 19:35:03 10° NE daylight
29 Mar - 03:39:23 10° N 03:42:01 22° NE 03:44:37 10° E night (unlit)
29 Mar - 05:15:57 10° W 05:18:20 19° SW 05:20:42 10° S night (unlit)
29 Mar - 18:36:40 10° S 18:39:30 28° SE 18:42:20 10° ENE daylight
29 Mar - 20:14:00 10° WNW 20:15:57 15° NW 20:17:55 10° N visible
30 Mar - 02:48:23 10° NNE 02:49:26 11° NE 02:50:28 10° ENE night (unlit)
30 Mar - 04:22:52 10° NW 04:26:02 45° SW 04:29:11 10° SSE night (unlit)
30 Mar - 17:45:51 10° SSE 17:47:13 12° SE 17:48:36 10° E daylight
30 Mar - 19:20:31 10° WSW 19:23:25 30° NW 19:26:20 10° NNE daylight
31 Mar - 03:30:23 10° NW 03:33:39 67° NE 03:36:55 10° SE night (unlit)
31 Mar - 18:27:44 10° SW 18:30:57 77° NW 18:34:11 10° NE daylight
01 Apr - 02:38:18 10° NNW 02:41:11 28° NE 02:44:03 10° ESE night (unlit)
01 Apr - 04:15:36 10° W 04:17:25 14° SW 04:19:14 10° SSW night (unlit)
01 Apr - 17:35:33 10° SSW 17:38:34 38° SE 17:41:37 10° ENE daylight
01 Apr - 19:13:49 10° WNW 19:15:08 12° NW 19:16:27 10° NNW daylight
